Chatham, MA

1:11 AM EST on December 10, 2019 (GMT -0500)
Chatham Municipal

Weather History for KCQX - October, 2019

Change the Weather History Date:

Thursday, October 10, 2019

  Actual Average Record
Temperature  
Mean Temperature 55 °F -  
Max Temperature 57 °F 60 °F 80 °F (2011)
Min Temperature 53 °F 46 °F 37 °F (1972)
Degree Days  
Heating Degree Days 10    
Growing Degree Days 5 (Base 50)    
Moisture  
Dew Point 51 °F    
Average Humidity 86    
Maximum Humidity 94    
Minimum Humidity 67    
Precipitation  
Precipitation 1.26 in - - ()
Sea Level Pressure  
Sea Level Pressure 30.14 in    
Wind  
Wind Speed 18 mph (NE)    
Max Wind Speed 23 mph    
Max Gust Speed 40 mph    
Visibility 6 miles    
Events Rain    
Averages and records for this station are not official NWS values.
T = Trace of Precipitation, MM = Missing Value Source: NWS Daily Summary

Daily Weather History Graph

Daily Weather History Graph

Search for Another Location

Airport or City:

Astronomy

Oct. 10, 2019 Rise Set
Actual Time 6:46 AM EDT 6:07 PM EDT
Civil Twilight 6:18 AM EDT 6:34 PM EDT
Nautical Twilight 5:46 AM EDT 7:06 PM EDT
Astronomical Twilight 5:13 AM EDT 7:39 PM EDT
Moon 5:10 PM EDT 3:22 AM EDT
Length of Visible Light 12h 16m
Length of Day
11h 20m
Waxing Gibbous, 91% of the Moon is Illuminated
Oct 10
Waxing Gibbous
Oct 13
Full
Oct 21
Last Quarter
Oct 27
New
Nov 4
First Quarter

Hourly Weather History & Observations

Time (EDT) Temp. Dew Point Humidity Pressure Visibility Wind Dir Wind Speed Gust Speed Precip Events Conditions
12:17 AM 57.9 °F 46.9 °F 67% 30.16 in 10.0 mi NE 17.3 mph 32.2 mph N/A   Overcast
12:52 AM 57.0 °F 48.0 °F 72% 30.15 in 10.0 mi NE 19.6 mph 36.8 mph 0.00 in Rain Light Rain
1:29 AM 57.0 °F 48.9 °F 74% 30.15 in 10.0 mi NE 15.0 mph 32.2 mph 0.00 in Rain Light Rain
1:52 AM 55.9 °F 50.0 °F 80% 30.16 in 7.0 mi NE 18.4 mph 29.9 mph 0.02 in Rain Light Rain
2:52 AM 55.9 °F 51.1 °F 84% 30.13 in 7.0 mi NE 18.4 mph 32.2 mph 0.02 in Rain Light Rain
3:52 AM 55.0 °F 52.0 °F 89% 30.13 in 5.0 mi NE 17.3 mph 31.1 mph 0.05 in Rain Light Rain
4:52 AM 55.0 °F 52.0 °F 89% 30.13 in 5.0 mi NE 17.3 mph 34.5 mph 0.09 in Rain Light Rain
5:30 AM 55.0 °F 52.0 °F 89% 30.14 in 3.0 mi NE 19.6 mph 31.1 mph 0.08 in Rain Rain
5:52 AM 54.0 °F 52.0 °F 93% 30.14 in 4.0 mi NE 17.3 mph 28.8 mph 0.14 in Rain Rain
6:52 AM 54.0 °F 52.0 °F 93% 30.15 in 4.0 mi NNE 18.4 mph 29.9 mph 0.15 in Rain Light Rain
7:23 AM 54.0 °F 52.0 °F 93% 30.14 in 2.5 mi NNE 18.4 mph 35.7 mph 0.04 in Rain Light Rain
7:50 AM 53.6 °F 51.8 °F 94% 30.15 in 3.0 mi NE 19.6 mph 40.3 mph 0.10 in Rain Rain
7:52 AM 54.0 °F 52.0 °F 93% 30.16 in 2.5 mi NE 17.3 mph 40.3 mph 0.11 in Rain Rain
8:38 AM 54.0 °F 52.0 °F 93% 30.16 in 3.0 mi NNE 13.8 mph 36.8 mph 0.07 in Rain Rain
8:52 AM 53.1 °F 51.1 °F 93% 30.17 in 3.0 mi NE 17.3 mph 33.4 mph 0.09 in Rain Light Rain
9:21 AM 54.0 °F 51.1 °F 90% 30.17 in 2.5 mi NE 21.9 mph 32.2 mph 0.05 in Rain Rain
9:52 AM 54.0 °F 51.1 °F 90% 30.17 in 2.0 mi NE 18.4 mph 33.4 mph 0.13 in Rain Rain
10:11 AM 54.0 °F 52.0 °F 93% 30.16 in 4.0 mi NNE 13.8 mph 34.5 mph 0.02 in Rain Light Rain
10:29 AM 55.0 °F 52.0 °F 89% 30.16 in 6.0 mi NNE 17.3 mph 32.2 mph 0.02 in Rain Light Rain
10:52 AM 55.0 °F 52.0 °F 89% 30.16 in 6.0 mi NE 16.1 mph 34.5 mph 0.03 in Rain Light Rain
11:36 AM 55.0 °F 52.0 °F 89% 30.16 in 5.0 mi NNE 17.3 mph 32.2 mph 0.04 in Rain Light Rain
11:52 AM 55.0 °F 52.0 °F 89% 30.16 in 4.0 mi NNE 16.1 mph 31.1 mph 0.05 in Rain Light Rain
12:52 PM 55.0 °F 52.0 °F 89% 30.14 in 6.0 mi NNE 13.8 mph 32.2 mph 0.06 in Rain Light Rain
1:34 PM 55.0 °F 52.0 °F 89% 30.12 in 2.5 mi NE 13.8 mph 31.1 mph 0.07 in Rain Rain
1:52 PM 55.0 °F 52.0 °F 89% 30.12 in 2.0 mi NNE 16.1 mph 39.1 mph 0.11 in Rain Rain
2:10 PM 55.0 °F 52.0 °F 89% 30.12 in 4.0 mi NNE 16.1 mph 34.5 mph 0.02 in Rain Light Rain
2:52 PM 55.0 °F 51.1 °F 86% 30.13 in 8.0 mi NE 13.8 mph 33.4 mph 0.02 in   Overcast
3:52 PM 55.9 °F 51.1 °F 84% 30.12 in 8.0 mi NE 17.3 mph 32.2 mph 0.01 in Rain Light Rain
4:52 PM 55.9 °F 50.0 °F 80% 30.13 in 7.0 mi NNE 19.6 mph 33.4 mph 0.00 in Rain Light Rain
5:52 PM 55.0 °F 51.1 °F 86% 30.14 in 4.0 mi NE 12.7 mph 26.5 mph 0.02 in Rain Light Rain
6:52 PM 55.0 °F 51.1 °F 86% 30.14 in 10.0 mi NE 18.4 mph 29.9 mph 0.01 in Rain Light Rain
7:52 PM 55.9 °F 50.0 °F 80% 30.14 in 8.0 mi NE 21.9 mph 31.1 mph 0.02 in Rain Light Rain
8:10 PM 55.9 °F 48.9 °F 77% 30.14 in 8.0 mi NE 23.0 mph 34.5 mph 0.01 in Rain Light Rain
8:52 PM 54.0 °F 50.0 °F 86% 30.15 in 5.0 mi NE 17.3 mph 32.2 mph 0.06 in Rain Light Rain
9:52 PM 54.0 °F 50.0 °F 86% 30.15 in 5.0 mi NE 15.0 mph 31.1 mph 0.05 in Rain Light Rain
10:52 PM 55.9 °F 50.0 °F 80% 30.14 in 10.0 mi NE 18.4 mph 31.1 mph 0.02 in   Overcast
11:39 PM 55.9 °F 51.1 °F 84% 30.12 in 9.0 mi NE 19.6 mph 31.1 mph 0.00 in   Overcast
11:52 PM 55.9 °F 50.0 °F 80% 30.12 in 10.0 mi NE 20.7 mph 38.0 mph 0.00 in   Overcast